[[{"header":{"parameterUnit":"m.s-1","parameterCategory":1,"la1":30.2991,"la2":30.254,"lo1":-89.0895,"lo2":-89.0444,"dy":0.0017,"dx":0.0017,"nx":28,"ny":28,"refTime":"2025-03-18T09:00:00:Z","depth":0,"parameterNumber":2,"parameterNumberName":"U-component_of_WINDS"},"data":[0,0,0,0,0,0,0,0,0,0,0,0,0,0,0,0,0,0,0,0,0,0,0,0,0,0,0,0,0,0,0,0,0,0,0,0,0,0,0,0,0,0,0,0,0,0,0,0,0,0,0,0,0,0,0,0,0,0,-1.8772,-1.8772,0,-1.8796,-1.8796,-1.8796,-1.8754,-1.8753,-1.8751,-1.875,-1.8775,-1.8777,-1.8779,0,0,0,0,0,0,0,0,0,0,0,0,0,-1.869,-1.8692,-1.8772,-1.8772,-1.8772,-1.8796,-1.8796,-1.8796,-1.8754,-1.8753,-1.8751,-1.8749,-1.8774,-1.8777,-1.8779,0,0,0,0,0,0,0,0,0,0,0,0,0,-1.8721,-1.8692,-1.8771,-1.8754,-1.8753,-1.8796,-1.8796,-1.8796,-1.8755,-1.8753,-1.8751,-1.8749,-1.8773,-1.8776,-1.8779,-1.884,0,0,-1.8788,-1.879,0,0,0,0,0,0,0,0,-1.8719,-1.8724,-1.8756,-1.8755,-1.8754,-1.877,-1.8776,-1.8811,-1.8755,-1.8754,-1.875,-1.8747,-1.8775,-1.8778,-1.8787,-1.8841,-1.8842,-1.8789,-1.879,-1.8792,-1.8793,0,0,0,0,0,0,0,-1.8717,-1.8723,-1.8781,-1.8757,-1.8755,-1.8745,-1.8747,-1.8783,-1.8776,-1.8754,-1.8751,-1.8754,-1.8774,-1.8784,-1.8787,-1.8843,-1.8789,-1.8791,-1.8793,-1.8794,-1.8949,-1.8952,0,0,0,0,0,0,-1.8717,-1.8721,-1.878,-1.8782,-1.8731,-1.8749,-1.8751,-1.8767,-1.8776,-1.8775,-1.8756,-1.8752,-1.878,-1.8784,-1.8788,-1.886,-1.8792,-1.8794,-1.8796,-1.8947,-1.895,-1.8952,0,0,0,0,0,0,-1.8716,-1.8723,-1.8779,-1.8751,-1.8757,-1.8752,-1.8771,-1.8768,-1.8778,-1.8777,-1.8776,-1.8768,-1.8778,-1.8784,-1.8828,-1.886,-1.8796,-1.8798,-1.8944,-1.8948,-1.8951,-1.9004,0,0,0,0,0,0,-1.8713,-1.8722,-1.8745,-1.8752,-1.8759,-1.8818,-1.8772,-1.877,-1.8784,-1.8779,-1.8788,-1.8787,-1.8777,-1.8823,-1.8831,-1.8863,-1.8801,-1.8941,-1.8946,-1.895,-1.8999,-1.9009,-1.9017,0,0,0,0,0,-1.8711,-1.8759,-1.8746,-1.8754,-1.8787,-1.882,-1.8825,-1.8812,-1.8787,-1.8809,-1.8809,-1.8787,-1.8856,-1.8828,-1.8836,-1.887,-1.8939,-1.8945,-1.895,-1.8995,-1.9007,-1.9017,0,0,0,0,0,0,-1.8756,-1.8759,-1.8746,-1.8797,-1.8809,-1.8813,-1.8841,-1.8825,-1.8844,-1.8838,-1.8822,-1.8825,-1.8872,-1.8875,-1.8845,-1.893,-1.8893,-1.89,-1.8925,-1.8936,-1.8945,-1.8943,-1.8803,0,0,0,0,0,-1.8772,-1.8799,-1.88,-1.8846,-1.8853,-1.8846,-1.886,-1.885,-1.8861,-1.8866,-1.8868,-1.888,-1.8905,-1.8921,-1.8943,-1.9,-1.9002,-1.9028,-1.9037,-1.9044,-1.905,-1.9081,-1.9092,-1.897,-1.897,-1.897,0,0,-1.8805,-1.8811,-1.8828,-1.8855,-1.8863,-1.8891,-1.8851,-1.8882,-1.8903,-1.8871,-1.8912,-1.8915,-1.8927,-1.8978,-1.9001,-1.8982,-1.9084,-1.9051,-1.9056,-1.9058,-1.9087,-1.9099,-1.9109,-1.8973,-1.8973,-1.8972,0,0,-1.888,-1.8887,-1.8926,-1.8935,-1.8947,-1.8943,-1.8953,-1.896,-1.8961,-1.9002,-1.8979,-1.9004,-1.9046,-1.9056,-1.9067,-1.9148,-1.9128,-1.9156,-1.9201,-1.9232,-1.9241,-1.925,-1.9278,-1.9289,-1.9162,-1.9162,-1.9162,0,-1.892,-1.8961,-1.8948,-1.8981,-1.8994,-1.8967,-1.9006,-1.9016,-1.9035,-1.9045,-1.9024,-1.9077,-1.9084,-1.9137,-1.9157,-1.9166,-1.9177,-1.9154,-1.9241,-1.9249,-1.9257,-1.9284,-1.9295,-1.9165,-1.9165,-1.9164,-1.9164,0,-1.9009,-1.9038,-1.9068,-1.9088,-1.9104,-1.9141,-1.9133,-1.9152,-1.9141,-1.9139,-1.9182,-1.919,-1.9213,-1.9225,-1.9214,-1.9277,-1.9266,-1.9244,-1.9206,-1.9272,-1.9297,-1.9308,-1.917,-1.9168,-1.9168,-1.9167,0,0,-1.9111,-1.9124,-1.9135,-1.9144,-1.9157,-1.918,-1.9216,-1.9239,-1.9255,-1.927,-1.9299,-1.9337,-1.9316,-1.9329,-1.9319,-1.9346,-1.941,-1.9321,-1.9321,-1.9336,-1.948,-1.9495,-1.9508,-1.9398,-1.94,-1.9401,-1.9478,0,-1.9185,-1.9246,-1.9236,-1.9295,-1.9323,-1.9299,-1.933,-1.9341,-1.9341,-1.9365,-1.9365,-1.9391,-1.9363,-1.937,-1.9396,-1.9397,-1.9438,-1.9391,-1.9425,-1.9426,-1.9421,-1.9521,-1.9537,-1.9609,-1.9488,-1.949,-1.9491,0,-1.9279,-1.9298,-1.936,-1.9369,-1.938,-1.9408,-1.943,-1.9452,-1.9465,-1.9464,-1.9478,-1.9464,-1.95,-1.9464,-1.9514,-1.9482,-1.9496,-1.9499,-1.9501,-1.9503,-1.9462,-1.9524,-1.9632,-1.9643,-1.9507,-1.9505,-1.9504,0,-1.9346,-1.9387,-1.943,-1.9438,-1.9451,-1.9471,-1.9477,-1.9488,-1.9504,-1.9523,-1.9532,-1.9555,-1.9568,-1.9586,-1.9579,-1.9553,-1.963,-1.9593,-1.963,-1.963,-1.9645,-1.9644,-1.9756,-1.9657,-1.9656,-1.9656,-1.9656,0,-1.9429,-1.9468,-1.946,-1.9486,-1.9529,-1.9519,-1.9562,-1.9565,-1.9576,-1.9602,-1.9583,-1.9609,-1.9598,-1.9624,-1.9618,-1.9661,-1.9667,-1.9666,-1.9664,-1.9667,-1.9667,-1.9675,-1.9669,-1.9659,-1.9658,-1.9658,-1.9657,0,-1.951,-1.9507,-1.9552,-1.9561,-1.9564,-1.9595,-1.9603,-1.9628,-1.9627,-1.9661,-1.9669,-1.9668,-1.9696,-1.9692,-1.9723,-1.972,-1.9772,-1.9765,-1.9768,-1.9765,-1.9802,-1.9798,-1.9922,-1.9937,-1.9828,-1.9829,-1.983,0,-1.9562,-1.9592,-1.9604,-1.9621,-1.9629,-1.9656,-1.9672,-1.9663,-1.968,-1.9698,-1.9721,-1.9748,-1.9769,-1.9816,-1.9818,-1.9843,-1.9835,-1.9877,-1.9838,-1.9841,-1.9835,-1.9833,-1.9835,-1.9884,-1.9885,-1.9886,-1.9887,0,-1.9655,-1.9653,-1.9676,-1.97,-1.9719,-1.9737,-1.9753,-1.9768,-1.976,-1.9781,-1.981,-1.9826,-1.9859,-1.9887,-1.991,-1.9917,-1.9901,-1.9899,-1.9909,-1.9911,-1.9912,-1.9911,-1.9787,-1.9896,-1.9895,-1.9894,-1.9894,-1.9893,-1.9723,-1.9749,-1.9762,-1.9789,-1.98,-1.9816,-1.984,-1.9843,-1.9867,-1.9893,-1.9887,-1.992,-1.9934,-1.9964,-1.9973,-1.9999,-1.9984,-1.9998,-2.0001,-2.0004,-2.0008,-1.9909,-2.0004,-2.0003,-2.0003,-2.0003,-2.0003,0,-1.9814,-1.9822,-1.9847,-1.9871,-1.9892,-1.9877,-1.9894,-1.9913,-1.9942,-1.9957,-1.9978,-2.0013,-2.0039,-2.0045,-2.007,-2.009,-2.0084,-2.0097,-2.0095,-2.0097,-2.0021,-2.001,-2.0102,-2.0102,-2.0102,-2.0102,-2.0102,-2.0102,-1.9864,-1.9906,-1.9906,-1.9954,-1.9961,-1.9994,-2.0005,-2.002,-2.0031,-2.007,-2.0093,-2.0096,-2.0107,-2.0134,-2.0158,-2.0159,-2.0169,-2.0185,-2.0183,-2.0112,-2.0102,-2.0093,-2.0082,-2.0188,-2.0188,-2.0257,-2.0257,-2.0258]},{"header":{"parameterUnit":"m.s-1","parameterCategory":1,"la1":30.2991,"la2":30.254,"lo1":-89.0895,"lo2":-89.0444,"dy":0.0017,"dx":0.0017,"nx":28,"ny":28,"refTime":"2025-03-18T09:00:00:Z","depth":0,"parameterNumber":3,"parameterNumberName":"V-component_of_WINDS"},"data":[0,0,0,0,0,0,0,0,0,0,0,0,0,0,0,0,0,0,0,0,0,0,0,0,0,0,0,0,0,0,0,0,0,0,0,0,0,0,0,0,0,0,0,0,0,0,0,0,0,0,0,0,0,0,0,0,0,0,0.1693,0.1693,0,0.1644,0.1643,0.1642,0.1633,0.1634,0.1634,0.1634,0.1584,0.1583,0.1581,0,0,0,0,0,0,0,0,0,0,0,0,0,0.1782,0.178,0.1693,0.1693,0.1692,0.1644,0.1643,0.1642,0.1633,0.1634,0.1634,0.1634,0.1585,0.1583,0.1581,0,0,0,0,0,0,0,0,0,0,0,0,0,0.1739,0.178,0.1693,0.1682,0.168,0.1644,0.1643,0.1642,0.1633,0.1634,0.1634,0.1635,0.1585,0.1583,0.158,0.1553,0,0,0.1573,0.1572,0,0,0,0,0,0,0,0,0.1741,0.1736,0.1684,0.1682,0.168,0.1645,0.1656,0.1612,0.1633,0.1651,0.1634,0.1635,0.1604,0.16,0.1589,0.155,0.1548,0.1572,0.1571,0.157,0.1569,0,0,0,0,0,0,0,0.1744,0.1738,0.1674,0.1683,0.1681,0.1679,0.1674,0.1648,0.1625,0.1649,0.1649,0.1643,0.1603,0.1592,0.1588,0.1547,0.1573,0.157,0.1569,0.1568,0.1485,0.1484,0,0,0,0,0,0,0.1749,0.174,0.1675,0.1672,0.1713,0.1677,0.1671,0.1656,0.1625,0.1621,0.1642,0.1642,0.1596,0.1591,0.1586,0.1553,0.157,0.1567,0.1566,0.1486,0.1485,0.1484,0,0,0,0,0,0,0.1751,0.1744,0.1677,0.1706,0.1697,0.1675,0.1658,0.1655,0.1643,0.162,0.1616,0.1635,0.1596,0.159,0.1561,0.1551,0.1566,0.1564,0.1486,0.1485,0.1484,0.1485,0,0,0,0,0,0,0.1754,0.1744,0.1733,0.1706,0.1696,0.1652,0.1657,0.1653,0.1639,0.1639,0.1612,0.1608,0.1596,0.1565,0.1559,0.1548,0.1562,0.1487,0.1486,0.1485,0.1486,0.1484,0.1482,0,0,0,0,0,0.1757,0.1735,0.1732,0.1725,0.1681,0.1652,0.1646,0.1633,0.1638,0.1627,0.1612,0.1608,0.1553,0.1562,0.1555,0.1543,0.1488,0.1486,0.1485,0.1486,0.1484,0.1482,0,0,0,0,0,0,0.1761,0.1731,0.1728,0.1696,0.1677,0.165,0.1636,0.1631,0.161,0.1611,0.1596,0.159,0.1563,0.155,0.1561,0.1515,0.1521,0.1518,0.1524,0.1522,0.1521,0.1524,0.156,0,0,0,0,0,0.1759,0.1737,0.1712,0.1686,0.1677,0.1658,0.1645,0.1637,0.1616,0.1607,0.159,0.1571,0.1549,0.1535,0.1514,0.1484,0.1478,0.1472,0.147,0.1469,0.1467,0.1451,0.1449,0.1479,0.1479,0.1479,0,0,0.1753,0.1733,0.1721,0.1687,0.1671,0.1649,0.1651,0.1628,0.1612,0.1604,0.1576,0.1563,0.154,0.1511,0.1498,0.15,0.1457,0.1467,0.1467,0.1465,0.145,0.1447,0.1444,0.1478,0.1478,0.1478,0,0,0.1731,0.1714,0.1691,0.1675,0.1651,0.1639,0.1634,0.1608,0.1599,0.1571,0.1565,0.1546,0.1509,0.1493,0.148,0.1455,0.1451,0.1448,0.144,0.1425,0.1423,0.142,0.1412,0.1409,0.1446,0.1446,0.1446,0,0.1727,0.1693,0.168,0.1658,0.1643,0.1636,0.1613,0.1598,0.1569,0.1559,0.1562,0.1516,0.15,0.1468,0.1462,0.1451,0.1445,0.1451,0.1424,0.1422,0.1419,0.1411,0.1408,0.1446,0.1446,0.1446,0.1446,0,0.169,0.1667,0.1652,0.1624,0.1608,0.1585,0.1569,0.1555,0.1549,0.1537,0.1509,0.149,0.1465,0.1457,0.145,0.1424,0.1426,0.1427,0.1432,0.1417,0.1409,0.1405,0.1445,0.1445,0.1446,0.1446,0,0,0.1668,0.1634,0.1629,0.1616,0.1589,0.1572,0.155,0.1526,0.1514,0.1494,0.1476,0.1445,0.1446,0.1431,0.1423,0.141,0.1392,0.1412,0.1411,0.1409,0.1363,0.1363,0.136,0.139,0.1389,0.1388,0.1365,0,0.1644,0.1604,0.1592,0.1558,0.1538,0.1531,0.1512,0.1494,0.1483,0.1464,0.1452,0.143,0.1432,0.1424,0.1411,0.1397,0.1383,0.1398,0.1373,0.1372,0.1379,0.1355,0.1355,0.1334,0.1362,0.1362,0.1361,0,0.1609,0.1589,0.1554,0.1531,0.1522,0.1505,0.1483,0.1465,0.1445,0.1437,0.1422,0.1415,0.1393,0.14,0.137,0.1381,0.137,0.1362,0.1361,0.1358,0.1366,0.1352,0.1327,0.1324,0.1356,0.1356,0.1357,0,0.1598,0.1562,0.1537,0.1526,0.1499,0.1487,0.1475,0.1456,0.1442,0.1423,0.1415,0.1393,0.1381,0.1365,0.1353,0.1359,0.1324,0.133,0.1318,0.1319,0.1311,0.1312,0.1284,0.1304,0.1304,0.1304,0.1304,0,0.1572,0.1551,0.1531,0.1516,0.1492,0.1479,0.1457,0.1444,0.1428,0.141,0.1403,0.1387,0.1372,0.1354,0.1345,0.1322,0.1316,0.131,0.1308,0.1311,0.1312,0.1304,0.1305,0.1303,0.1303,0.1303,0.1303,0,0.1555,0.1541,0.1513,0.149,0.1484,0.1467,0.1448,0.1433,0.1422,0.14,0.1394,0.1376,0.1355,0.1342,0.1315,0.1308,0.1283,0.1281,0.129,0.1289,0.1278,0.128,0.1245,0.124,0.1263,0.1262,0.1262,0,0.154,0.1523,0.1498,0.1486,0.1474,0.1454,0.1441,0.1428,0.1415,0.1392,0.138,0.1358,0.134,0.1307,0.1292,0.1272,0.127,0.1259,0.1266,0.127,0.127,0.1271,0.127,0.1257,0.1257,0.1257,0.1257,0,0.1514,0.1508,0.1488,0.1467,0.1451,0.1434,0.1416,0.1407,0.1392,0.1377,0.1355,0.1341,0.1314,0.1293,0.1272,0.126,0.1256,0.1255,0.1251,0.1254,0.126,0.1257,0.1287,0.1255,0.1256,0.1256,0.1256,0.1256,0.1497,0.1483,0.1463,0.1442,0.1428,0.1413,0.1398,0.1385,0.1366,0.1343,0.1337,0.1315,0.1297,0.1268,0.1256,0.1239,0.124,0.1235,0.1233,0.1232,0.1233,0.1263,0.1235,0.1235,0.1235,0.1235,0.1235,0,0.1471,0.1459,0.144,0.1416,0.14,0.1398,0.1379,0.1366,0.1346,0.1329,0.1312,0.1288,0.1268,0.1252,0.1231,0.1221,0.1219,0.1216,0.1217,0.1214,0.1232,0.1237,0.1218,0.1218,0.1218,0.1218,0.1218,0.1218,0.1456,0.1431,0.1424,0.1393,0.1381,0.1358,0.1348,0.1334,0.1321,0.1294,0.1277,0.1267,0.1251,0.123,0.1212,0.1208,0.1201,0.1199,0.1194,0.1211,0.1213,0.1215,0.122,0.1197,0.1197,0.1178,0.1178,0.1178]}]]